Time,TemperatureF,DewpointF,PressureIn,WindDirection,WindDirectionDegrees,WindSpeedMPH,WindSpeedGustMPH,Humidity,HourlyPrecipIn,Conditions,Clouds,dailyrainin,SoftwareType,DateUTC
2014-12-27 00:02:00,27.5,25.0,29.85,NE,43,13.0,17.0,90,0.00,,,0.00,VWS V14.01,2014-12-27 06:02:00,
2014-12-27 00:07:00,27.5,25.0,29.85,NNE,33,8.0,17.0,90,0.00,,,0.00,VWS V14.01,2014-12-27 06:07:00,
2014-12-27 00:12:00,27.3,24.8,29.85,NE,46,6.0,17.0,90,0.00,,,0.00,VWS V14.01,2014-12-27 06:12:00,
2014-12-27 00:17:00,27.3,24.8,29.86,NNE,20,6.0,17.0,90,0.00,,,0.00,VWS V14.01,2014-12-27 06:17:00,
2014-12-27 00:22:00,27.2,24.9,29.86,NNE,31,6.0,17.0,91,0.00,,,0.00,VWS V14.01,2014-12-27 06:22:00,
2014-12-27 00:27:00,27.2,24.9,29.86,NNW,331,0.0,17.0,91,0.00,,,0.00,VWS V14.01,2014-12-27 06:27:00,
2014-12-27 00:32:00,27.0,24.7,29.87,NNW,348,1.0,12.0,91,0.00,,,0.00,VWS V14.01,2014-12-27 06:32:00,
2014-12-27 00:37:00,27.0,24.7,29.87,NNW,336,5.0,12.0,91,0.00,,,0.00,VWS V14.01,2014-12-27 06:37:00,
2014-12-27 00:42:00,26.9,24.6,29.87,NNW,348,6.0,12.0,91,0.00,,,0.00,VWS V14.01,2014-12-27 06:42:00,
2014-12-27 00:47:00,26.7,24.7,29.87,NNW,346,6.0,12.0,92,0.00,,,0.00,VWS V14.01,2014-12-27 06:47:00,
2014-12-27 00:52:00,26.7,24.7,29.87,North,359,5.0,15.0,92,0.00,,,0.00,VWS V14.01,2014-12-27 06:52:00,
2014-12-27 00:57:00,26.6,24.6,29.87,North,353,10.0,15.0,92,0.00,,,0.00,VWS V14.01,2014-12-27 06:57:00,
2014-12-27 01:02:00,26.6,24.6,29.86,North,7,7.0,11.0,92,0.00,,,0.00,VWS V14.01,2014-12-27 07:02:00,
2014-12-27 01:07:00,26.6,24.6,29.86,NNE,23,8.0,13.0,92,0.00,,,0.00,VWS V14.01,2014-12-27 07:07:00,
2014-12-27 01:12:00,26.4,24.4,29.86,NNW,348,2.0,13.0,92,0.00,,,0.00,VWS V14.01,2014-12-27 07:12:00,
2014-12-27 01:17:00,26.4,24.4,29.86,NE,37,8.0,13.0,92,0.00,,,0.00,VWS V14.01,2014-12-27 07:17:00,
2014-12-27 01:22:00,26.4,24.6,29.86,NNE,29,5.0,13.0,93,0.00,,,0.00,VWS V14.01,2014-12-27 07:22:00,
2014-12-27 01:27:00,26.4,24.6,29.86,NE,44,11.0,13.0,93,0.00,,,0.00,VWS V14.01,2014-12-27 07:27:00,
2014-12-27 01:32:00,26.3,24.6,29.85,NNE,29,2.0,12.0,93,0.00,,,0.00,VWS V14.01,2014-12-27 07:32:00,
2014-12-27 01:37:00,26.3,24.6,29.85,North,358,6.0,13.0,93,0.00,,,0.00,VWS V14.01,2014-12-27 07:37:00,
2014-12-27 01:42:00,26.1,24.4,29.85,NNE,27,11.0,14.0,93,0.00,,,0.00,VWS V14.01,2014-12-27 07:42:00,
2014-12-27 01:47:00,26.1,24.4,29.85,NNE,22,1.0,16.0,93,0.00,,,0.00,VWS V14.01,2014-12-27 07:47:00,
2014-12-27 01:52:00,26.1,24.4,29.85,NNE,19,6.0,19.0,93,0.00,,,0.00,VWS V14.01,2014-12-27 07:52:00,
2014-12-27 01:57:00,26.0,24.3,29.85,NNE,23,7.0,21.0,93,0.00,,,0.00,VWS V14.01,2014-12-27 07:57:00,
2014-12-27 02:02:00,26.0,24.3,29.85,North,10,3.0,11.0,93,0.00,,,0.00,VWS V14.01,2014-12-27 08:02:00,
2014-12-27 02:07:00,26.0,24.3,29.85,NNE,29,5.0,13.0,93,0.00,,,0.00,VWS V14.01,2014-12-27 08:07:00,
2014-12-27 02:12:00,26.0,24.3,29.85,NNE,30,10.0,14.0,93,0.00,,,0.00,VWS V14.01,2014-12-27 08:12:00,
2014-12-27 02:17:00,26.0,24.3,29.85,NNE,33,4.0,14.0,93,0.00,,,0.00,VWS V14.01,2014-12-27 08:17:00,
2014-12-27 02:22:00,26.0,24.3,29.85,NNE,26,10.0,14.0,93,0.00,,,0.00,VWS V14.01,2014-12-27 08:22:00,
2014-12-27 02:27:00,26.0,24.3,29.85,North,352,2.0,16.0,93,0.00,,,0.00,VWS V14.01,2014-12-27 08:27:00,
2014-12-27 02:32:00,25.8,24.1,29.84,NNE,17,9.0,13.0,93,0.00,,,0.00,VWS V14.01,2014-12-27 08:32:00,
2014-12-27 02:37:00,25.7,24.0,29.84,NNE,26,9.0,13.0,93,0.00,,,0.00,VWS V14.01,2014-12-27 08:37:00,
2014-12-27 02:42:00,25.7,24.0,29.84,North,356,5.0,13.0,93,0.00,,,0.00,VWS V14.01,2014-12-27 08:42:00,
2014-12-27 02:47:00,25.6,23.9,29.84,North,359,5.0,13.0,93,0.00,,,0.00,VWS V14.01,2014-12-27 08:47:00,
2014-12-27 02:52:00,25.6,23.9,29.84,NNE,29,8.0,13.0,93,0.00,,,0.00,VWS V14.01,2014-12-27 08:52:00,
2014-12-27 02:57:00,25.4,23.7,29.84,NNE,13,10.0,13.0,93,0.00,,,0.00,VWS V14.01,2014-12-27 08:57:00,
2014-12-27 03:02:00,25.4,23.7,29.85,North,350,7.0,10.0,93,0.00,,,0.00,VWS V14.01,2014-12-27 09:02:00,